EUTELSAT 21B

Last updated on Oct. 23, 2020, 5:56 a.m. UTC

1 38992U 12062B   20296.80188072  .00000115  00000-0  00000+0 0  9991
2 38992   0.0704   6.1475 0002575 199.6720 136.1676  1.00267731 29187
UTC
Height (km)
Latitude
Longitude
Inclination
Orbital Period
UTC large
Height (km)
Speed (km/s)
/
Latitude / Longitude
Inclination (degrees)
Orbital Period (minutes)
Azimuth
Elevation
Range (km)
Doppler Factor
iOS Compass Heading
iOS Angle

Next 30 passes for location: Hong Kong

Rise time Rise Azimuth (degrees) Set time Set Azimuth (degrees) Duration Max altitude (degrees)

No matching passes for this satellites